Location: Ballingbuur
(53.0000°N, 5.7667°E)
Time: 06:23:46
(UTC+00:00)

SL-4 R/B - Pass Details

Date: 29 November 2020
Orbit: 428 x 664 km, 51.6° (Epoch: 23 January)

Event Time Altitude Azimuth Distance (km) Brightness Sun altitude
Exits shadow 04:15:35 36° 101° (E) 824 3.4 -27.5°
Drops below altitude 10° 04:17:55 10° 87° (E) 1,680 5.5 -27.1°
Sets 04:20:01 0° 84° (E) 2,525 6.7 -26.8°
